FW6302 Weather Reports


Display with metric or nautical units.
time (UTC)temp
F
wind
direction
speed
MPH
gust
MPH
rain 1hr
in
rain 24hr
in
rain mn
in
humidity
%
barometer
mb
20260504150520 63 345 16.0 25.0 0.00 0.00 0.00 48 1002.8
20260504141014 61 303 16.0 31.0 0.00 0.00 0.00 57 1002.8
20260504140514 62 323 19.0 26.0 0.00 0.00 0.00 57 1002.6
20260504130502 56 132 1.0 3.0 0.00 0.00 0.00 63 1002.0
20260504110543 47 148 1.0 3.0 0.00 0.00 0.00 75 1002.1
20260504100536 49 229 2.0 3.0 0.00 0.00 0.00 72 1002.9
20260504081530 49 159 1.0 2.0 0.00 0.00 0.00 73 1003.5
20260504081026 49 158 0.0 4.0 0.00 0.00 0.00 73 1003.6
20260504080525 49 159 2.0 4.0 0.00 0.00 0.00 73 1003.6
20260504050559 51 162 3.0 4.0 0.00 0.00 0.00 68 1006.1
20260504045557 52 167 2.0 3.0 0.00 0.00 0.00 66 1006.1
20260504045055 52 148 1.0 3.0 0.00 0.00 0.00 63 1006.2
20260504044557 52 148 1.0 2.0 0.00 0.00 0.00 62 1006.0
20260504044054 52 148 1.0 3.0 0.00 0.00 0.00 61 1006.1
20260504043654 52 148 1.0 3.0 0.00 0.00 0.00 61 1006.2
20260504043058 52 148 1.0 2.0 0.00 0.00 0.00 62 1006.2
20260504042554 53 148 0.0 3.0 0.00 0.00 0.00 61 1006.1
20260504042053 53 148 0.0 0.0 0.00 0.00 0.00 61 1006.1
20260504041551 53 158 0.0 0.0 0.00 0.00 0.00 61 1006.4
20260504041051 53 158 0.0 0.0 0.00 0.00 0.00 59 1006.4
20260504040551 53 158 0.0 0.0 0.00 0.00 0.00 61 1006.4
20260504040053 54 158 0.0 0.0 0.00 0.00 0.00 60 1006.6
20260504035551 54 158 0.0 0.0 0.00 0.00 0.00 58 1006.7
20260504035049 55 158 0.0 0.0 0.00 0.00 0.00 59 1006.7
20260504034556 55 158 0.0 0.0 0.00 0.00 0.00 57 1006.8
20260504034053 55 158 0.0 0.0 0.00 0.00 0.00 57 1006.9
20260504033548 55 158 0.0 0.0 0.00 0.00 0.00 56 1007.0
20260504033048 55 158 0.0 0.0 0.00 0.00 0.00 57 1007.1
20260504032550 55 158 0.0 0.0 0.00 0.00 0.00 58 1007.0
20260504032048 55 158 0.0 0.0 0.00 0.00 0.00 58 1007.1
20260504031548 56 158 0.0 0.0 0.00 0.00 0.00 57 1007.1
20260504031047 56 158 0.0 0.0 0.00 0.00 0.00 56 1007.1
20260504030550 57 158 0.0 0.0 0.00 0.00 0.00 55 1007.1
20260504030047 57 158 0.0 0.0 0.00 0.00 0.00 53 1007.1
20260504025547 57 158 0.0 0.0 0.00 0.00 0.00 53 1007.1
20260504025047 58 158 0.0 1.0 0.00 0.00 0.00 52 1007.0
20260504024551 58 158 0.0 1.0 0.00 0.00 0.00 52 1007.1
20260504024046 58 158 0.0 1.0 0.00 0.00 0.00 52 1007.0
20260504023546 59 158 0.0 2.0 0.00 0.00 0.00 51 1007.0
20260504023046 59 158 1.0 2.0 0.00 0.00 0.00 49 1006.9
20260504022548 60 158 0.0 3.0 0.00 0.00 0.00 48 1006.9
20260504022046 60 143 2.0 3.0 0.00 0.00 0.00 47 1007.0
20260504021551 61 243 2.0 3.0 0.00 0.00 0.00 47 1007.0
20260504021049 61 243 1.0 2.0 0.00 0.00 0.00 47 1007.0
20260504020547 62 243 1.0 2.0 0.00 0.00 0.00 47 1007.0
20260504020044 63 243 1.0 2.0 0.00 0.00 0.00 46 1007.1
20260504015544 63 243 1.0 2.0 0.00 0.00 0.00 44 1007.1
20260504015044 64 243 1.0 2.0 0.00 0.00 0.00 43 1007.1
20260504014544 65 243 0.0 2.0 0.00 0.00 0.00 41 1007.3
20260504014044 66 243 1.0 2.0 0.00 0.00 0.00 39 1007.2
20260504013543 66 243 1.0 3.0 0.00 0.00 0.00 39 1007.2
20260504013056 67 243 1.0 3.0 0.00 0.00 0.00 39 1007.2
20260504012543 67 242 1.0 4.0 0.00 0.00 0.00 38 1007.3
20260504012046 68 258 2.0 4.0 0.00 0.00 0.00 38 1007.3
20260504011543 68 255 2.0 8.0 0.00 0.00 0.00 37 1007.4
20260504011041 69 250 4.0 8.0 0.00 0.00 0.00 36 1007.4
20260504010541 70 280 5.0 7.0 0.00 0.00 0.00 35 1007.4
20260504010042 70 264 5.0 7.0 0.00 0.00 0.00 34 1007.5
20260504005541 70 275 4.0 8.0 0.00 0.00 0.00 35 1007.5
20260504005039 71 262 4.0 8.0 0.00 0.00 0.00 34 1007.6
20260504004538 71 265 5.0 10.0 0.00 0.00 0.00 34 1007.6
20260504004040 71 277 6.0 11.0 0.00 0.00 0.00 33 1007.7
20260504003537 71 265 6.0 11.0 0.00 0.00 0.00 33 1007.7
20260504003039 72 257 6.0 10.0 0.00 0.00 0.00 33 1007.7
20260504002536 72 281 5.0 10.0 0.00 0.00 0.00 32 1007.8
20260504002036 72 259 2.0 10.0 0.00 0.00 0.00 35 1007.9
20260504001538 72 276 5.0 10.0 0.00 0.00 0.00 32 1008.0
20260504001036 72 287 4.0 10.0 0.00 0.00 0.00 32 1008.0
20260504000534 72 311 5.0 11.0 0.00 0.00 0.00 33 1008.0
20260504000035 72 299 5.0 11.0 0.00 0.00 0.00 32 1008.0
20260503235534 72 278 5.0 12.0 0.00 0.00 0.00 31 1008.0
20260503235033 72 250 7.0 12.0 0.00 0.00 0.00 31 1008.2
20260503234532 72 275 7.0 14.0 0.00 0.00 0.00 31 1008.2
20260503234032 72 259 8.0 14.0 0.00 0.00 0.00 30 1008.3
20260503233531 72 276 7.0 15.0 0.00 0.00 0.00 31 1008.3
20260503233031 72 281 10.0 17.0 0.00 0.00 0.00 30 1008.5
20260503232531 72 268 8.0 17.0 0.00 0.00 0.00 30 1008.4
20260503232032 72 294 7.0 14.0 0.00 0.00 0.00 31 1008.4
20260503231532 72 259 8.0 14.0 0.00 0.00 0.00 31 1008.5
20260503231032 72 276 6.0 13.0 0.00 0.00 0.00 33 1008.4
20260503230530 72 305 4.0 17.0 0.00 0.00 0.00 33 1008.5
20260503230040 72 294 8.0 17.0 0.00 0.00 0.00 33 1008.6
20260503225529 72 257 7.0 16.0 0.00 0.00 0.00 31 1008.6
20260503225031 72 270 11.0 16.0 0.00 0.00 0.00 31 1008.6
20260503224529 72 280 5.0 15.0 0.00 0.00 0.00 32 1008.6
20260503224027 72 242 9.0 15.0 0.00 0.00 0.00 32 1008.7
20260503223527 72 295 1.0 15.0 0.00 0.00 0.00 31 1008.6
20260503223026 72 300 6.0 15.0 0.00 0.00 0.00 31 1008.7
20260503222525 72 332 7.0 15.0 0.00 0.00 0.00 31 1008.8
20260503222024 72 293 6.0 13.0 0.00 0.00 0.00 32 1008.8
20260503221527 72 300 7.0 13.0 0.00 0.00 0.00 31 1008.8
20260503221024 72 304 7.0 17.0 0.00 0.00 0.00 31 1008.9
20260503220526 72 281 12.0 17.0 0.00 0.00 0.00 30 1008.9
20260503220024 72 293 6.0 12.0 0.00 0.00 0.00 33 1009.0
20260503215522 72 268 7.0 12.0 0.00 0.00 0.00 31 1009.0
20260503215023 72 270 6.0 16.0 0.00 0.00 0.00 31 1009.0
20260503214535 72 278 8.0 20.0 0.00 0.00 0.00 32 1009.1
20260503214024 72 279 9.0 20.0 0.00 0.00 0.00 33 1009.0
20260503213521 72 258 10.0 17.0 0.00 0.00 0.00 33 1009.1
20260503213020 72 282 10.0 17.0 0.00 0.00 0.00 33 1009.2
20260503212523 72 285 9.0 16.0 0.00 0.00 0.00 34 1009.2
20260503212018 72 300 6.0 16.0 0.00 0.00 0.00 34 1009.4
20260503211517 72 295 7.0 16.0 0.00 0.00 0.00 34 1009.4
20260503211018 72 325 10.0 17.0 0.00 0.00 0.00 33 1009.4
20260503210516 72 302 7.0 17.0 0.00 0.00 0.00 32 1009.7
20260503210016 71 342 10.0 16.0 0.00 0.00 0.00 32 1009.8
20260503205515 72 297 8.0 15.0 0.00 0.00 0.00 34 1009.8
20260503205015 71 354 9.0 18.0 0.00 0.00 0.00 33 1009.9
20260503204514 72 274 6.0 18.0 0.00 0.00 0.00 34 1009.9
20260503204014 72 335 9.0 19.0 0.00 0.00 0.00 34 1009.9
20260503203519 72 319 9.0 17.0 0.00 0.00 0.00 33 1009.9
20260503203015 72 342 6.0 16.0 0.00 0.00 0.00 33 1010.1
20260503202514 72 285 8.0 15.0 0.00 0.00 0.00 33 1010.1
20260503202015 72 293 9.0 16.0 0.00 0.00 0.00 34 1010.3
20260503201513 72 297 11.0 16.0 0.00 0.00 0.00 34 1010.3
20260503201011 72 249 6.0 15.0 0.00 0.00 0.00 33 1010.3
20260503200510 71 319 8.0 17.0 0.00 0.00 0.00 32 1010.3
20260503200012 72 331 6.0 16.0 0.00 0.00 0.00 35 1010.4
20260503195508 71 312 7.0 20.0 0.00 0.00 0.00 35 1010.4
20260503195009 71 296 11.0 18.0 0.00 0.00 0.00 35 1010.6
20260503194509 71 293 8.0 19.0 0.00 0.00 0.00 36 1010.5
20260503194011 71 293 11.0 19.0 0.00 0.00 0.00 34 1010.6
20260503193509 71 288 8.0 16.0 0.00 0.00 0.00 35 1010.6
20260503193009 71 290 8.0 16.0 0.00 0.00 0.00 34 1010.6
20260503192506 71 314 10.0 18.0 0.00 0.00 0.00 36 1010.6
20260503192008 71 358 12.0 21.0 0.00 0.00 0.00 34 1010.7
20260503191511 71 15 11.0 21.0 0.00 0.00 0.00 33 1010.8
20260503191006 70 255 6.0 20.0 0.00 0.00 0.00 36 1010.9
20260503190504 70 359 9.0 20.0 0.00 0.00 0.00 37 1010.9
20260503190003 70 343 9.0 19.0 0.00 0.00 0.00 37 1011.0
20260503185501 70 40 11.0 17.0 0.00 0.00 0.00 37 1010.9
20260503185001 70 328 7.0 18.0 0.00 0.00 0.00 36 1011.1
20260503184616 70 321 12.0 18.0 0.00 0.00 0.00 35 1011.1
20260503184059 70 332 9.0 18.0 0.00 0.00 0.00 36 1011.1
20260503183602 70 20 9.0 18.0 0.00 0.00 0.00 37 1011.2
20260503183059 70 301 9.0 18.0 0.00 0.00 0.00 38 1011.2
20260503182557 69 319 10.0 23.0 0.00 0.00 0.00 37 1011.4
20260503182059 69 328 14.0 23.0 0.00 0.00 0.00 37 1011.6
20260503181556 69 323 12.0 22.0 0.00 0.00 0.00 38 1011.8
20260503181056 69 326 8.0 19.0 0.00 0.00 0.00 38 1011.9
20260503180556 69 311 11.0 20.0 0.00 0.00 0.00 38 1011.9
20260503180100 68 344 15.0 21.0 0.00 0.00 0.00 37 1012.0
20260503175554 69 333 12.0 23.0 0.00 0.00 0.00 37 1012.1
20260503175054 69 351 14.0 23.0 0.00 0.00 0.00 37 1011.9
20260503174555 69 281 10.0 22.0 0.00 0.00 0.00 36 1012.0
20260503174052 69 335 11.0 22.0 0.00 0.00 0.00 39 1012.2
20260503173552 68 23 12.0 27.0 0.00 0.00 0.00 37 1012.3
20260503173053 68 312 10.0 21.0 0.00 0.00 0.00 37 1012.3
20260503172551 68 334 12.0 21.0 0.00 0.00 0.00 38 1012.4
20260503172053 68 330 14.0 19.0 0.00 0.00 0.00 37 1012.3
20260503171551 68 20 13.0 22.0 0.00 0.00 0.00 39 1012.3
20260503171050 68 348 15.0 22.0 0.00 0.00 0.00 36 1012.1
20260503170548 67 352 15.0 20.0 0.00 0.00 0.00 39 1012.3